Погода в Николаевке

Украина / Сумская область     50°56′28″N   34°22′43″E
темп.,
°C
ветер,
м/с
пор.,
м/с
влажн.,
%
обл.,
%
осадки,
мм/ч
давл.,
гПа
погр.,
м
21 апреля, ср
ср2100:00+6ссв479273 0.0 1005311
03:00+5с3592100 0.0 1006326
06:00+5ссз2393100 0.0 1007246
09:00+5зсз1293100 0.7 1009182
12:00+6юз2390100 0.4 1011492
15:00+5з5995100 0.9 1013740
18:00+5з389496 0.1 1014544
21:00+4ю009370 0.1 101610
22 апреля, чт
чт2200:00+5ю3792100 0.0 1016164
03:00+6ю388690 0.0 1016189
06:00+6ююз41085100 0.0 1017231
09:00+10ююз697474 0.1 1018426
12:00+15ююз685614 0.1 10181379
15:00+15юз695199 0.5 10172056
18:00+14ююз6105875 0.1 1017520
21:00+12ю51164100 0.1 1018238
23 апреля, пт
пт2300:00+10ю5137571 0.0 1017267
03:00+8ю4138290 0.0 1017245
06:00+9ю5128345 0.0 1017297
09:00+12ю7127072 0.0 1017606
12:00+16ю8105924 0.0 10151374
15:00+16ююз91255100 2.1 10131790
18:00+10з61092100 3.7 1014814
21:00+7зсз3494100 11.2 1014448
24 апреля, сб
сб2400:00+5зсз5893100 1.7 1015799
03:00+4зсз4891100 1.7 1015529
06:00+2зюз37965 0.0 1015232
09:00+6з58745 0.0 1016867
12:00+9з68515 0.1 10151887
15:00+9з8952100 0.8 10151873
18:00+8з686185 0.9 10151484
21:00+4з377821 1.1 1017181
25 апреля, вс
вс2500:00+3зюз388287 0.0 1017184
03:00+2зюз37855 0.1 1017157
06:00+1зюз36875 0.0 1017145
09:00+6зюз46695 0.0 1017802
12:00+9юз56485 0.0 10171827
15:00+11юз5740100 0.0 10162524
18:00+10юз474950 0.0 10162003
21:00+6зюз3566100 0.1 1016117